Regional Weather Roundup
Issued by NWS Green Bay, WI

Home | Current Version | Previous Version | Graphics & Text | Print | Product List | Glossary Off
Versions: 1 2 3 4 5 6 7 8 9 10 11 12 13 14 15 16 17 18 19 20 21 22 23 24 25 26 27 28 29 30 31 32 33 34 35 36 37 38 39 40 41 42 43 44 45 46 47 48 49 50

190
ASUS43 KGRB 080711
RWRGRB

NORTH-CENTRAL AND NORTHEAST WISCONSIN REGIONAL WEATHER ROUNDUP
NATIONAL WEATHER SERVICE GREEN BAY WI
100 AM CST MON FEB 08 2016

WIZ005-009-010>012-018-019-080800-
NORTH CENTRAL WISCONSIN

CITY           SKY/WX    TMP DP  RH WIND       PRES   REMARKS
IRONWOOD       CLOUDY    28  28 100 CALM      29.51R
MANITOWISH WTR LGT SNOW  26  26  97 W6        29.51S
ARBOR VITAE    CLOUDY    29  26  88 NW7       29.51F
EAGLE RIVER    CLOUDY    30  28  94 NW7       29.50S
LAND O LAKES   FLURRIES  30  29  96 W3        29.50F
RHINELANDER    LGT SNOW  29  26  89 W7        29.51S FOG
PHILLIPS       LGT SNOW  24  21  90 W6        29.55S
ANTIGO         CLOUDY    30  29  94 W12       29.52S
TOMAHAWK       LGT SNOW  26  23  87 NW8       29.54S
MERRILL        LGT SNOW  28  26  91 NW5       29.56S
$$

WIZ013-073-080800-
NORTHEAST WISCONSIN

CITY           SKY/WX    TMP DP  RH WIND       PRES   REMARKS
IRON MOUNTAIN  LGT SNOW  31  28  89 CALM      29.51S FOG
MARINETTE      CLOUDY    34  28  80 SW5       29.55S
OCONTO         CLOUDY    34  28  78 CALM      29.55F
$$

WIZ017-030-035>037-045-080800-
CENTRAL WISCONSIN

CITY           SKY/WX    TMP DP  RH WIND       PRES   REMARKS
MEDFORD        LGT SNOW  24  22  91 NW8       29.56S
WAUSAU         FLURRIES  30  25  81 W12       29.54S
MOSINEE        CLOUDY    28  27  93 W15       29.57S
MARSHFIELD     LGT SNOW  25  19  78 NW12      29.57F
WISC RAPIDS    CLOUDY    29  22  75 NW9       29.60S
STEVENS POINT  CLOUDY    28  24  84 W8G17     29.57S
WAUPACA        CLOUDY    36  32  86 W9        29.56F
SHAWANO        CLOUDY    37  28  72 CALM      29.55F
CLINTONVILLE   CLOUDY    34  30  86 W5        29.55F FOG
WAUTOMA        CLOUDY    33  32  96 NW10      29.58S
$$

WIZ038-039-048-051-080800-
FOX VALLEY

CITY           SKY/WX    TMP DP  RH WIND       PRES   REMARKS
NWS GREEN BAY  CLOUDY    35  28  75 SW5       29.56F
APPLETON       CLOUDY    34  28  80 SW7       29.54F
OSHKOSH        CLOUDY    34  27  75 SW7       29.56F
FOND DU LAC    CLOUDY    33  27  78 SW7       29.57F
$$

WIZ022-050-052-080800-
EAST CENTRAL WISCONSIN

CITY           SKY/WX    TMP DP  RH WIND       PRES   REMARKS
EPHRAIM        CLOUDY    34  28  78 SW5       29.54S
STURGEON BAY   MOCLDY    34  27  75 SW6       29.58S
MANITOWOC      CLOUDY    33  27  78 SW6       29.58F
SHEBOYGAN      MOCLDY    28  24  85 S5        29.58F
$$

LMZ563-521-522-541>543-080800-
LAKESHORE

STATION/POSITION TIME  TEMP    WIND        PRES    VSBY  WAVE
                       AIR SEA DIR/SP/G                  HT/PER
                 (UTC) (F)     (DEG/KT/KT) (MB)    (MI)  (FT/S)
SHEBOYGAN LKSHOR 0700   32     230/  8/  9 1002.7F
KEWAUNEE LKSHORE 0600   35     240/  2/  7 1001.0F
NORTHPORT PIER   0600   37      CALM  /  7 1001.4S
CHAMBERS ISLAND  0600   36     190/  4/  8 1001.4F
MENOMINEE LKSHOR 0600   35     210/  3     1000.0F
$$




USA.gov is the U.S. government's official web portal to all federal, state and local government web resources and services.